When you browse on this site, cookies collect data to enhance your experience and personalize the content and advertising you see.
Visit our Privacy Policy to learn more. By continuing to use the site, you agree to this use of cookies and data.
  • în România
  • Lista ţărilor
  • Pe 7 zile
  • Temperatura apei
  • Hartă satelitară
  • Meteo pe hartă
  • Widget-uri
  • user-avatar
    Intrare

    Meteo pe oră la Choszczno

    Astăzi, 27 Mai, Luni

    Timp Temperatura Precipitaţii Vânt Presiune Umiditate
    00:00 +14°C° 0 mm 3 m/s 751 mmHg 82%
    01:00 +14°C° 0 mm 3 m/s 751 mmHg 82%
    02:00 +14°C° 0 mm 4 m/s 750 mmHg 83%
    03:00 +14°C° 0 mm 4 m/s 750 mmHg 83%
    04:00 +14°C° 0 mm 4 m/s 750 mmHg 84%
    05:00 +15°C° 0 mm 5 m/s 750 mmHg 81%
    06:00 +16°C° 0 mm 5 m/s 750 mmHg 79%
    07:00 +17°C° 0 mm 6 m/s 750 mmHg 77%
    08:00 +17°C° 0.1 mm 6 m/s 750 mmHg 78%
    09:00 +17°C° 0.1 mm 6 m/s 751 mmHg 79%
    10:00 +16°C° 0.1 mm 5 m/s 751 mmHg 81%
    11:00 +16°C° 0.2 mm 5 m/s 751 mmHg 84%
    12:00 +15°C° 0.2 mm 4 m/s 751 mmHg 86%
    13:00 +15°C° 0.2 mm 4 m/s 750 mmHg 89%
    14:00 +17°C° 0 mm 3 m/s 750 mmHg 82%
    15:00 +19°C° 0 mm 3 m/s 750 mmHg 75%
    16:00 +20°C° 0 mm 3 m/s 750 mmHg 68%
    17:00 +20°C° 0 mm 3 m/s 750 mmHg 72%
    18:00 +19°C° 0 mm 2 m/s 750 mmHg 76%
    19:00 +19°C° 0 mm 1 m/s 750 mmHg 80%
    20:00 +18°C° 0 mm 1 m/s 750 mmHg 83%
    21:00 +15°C° 0 mm 1 m/s 750 mmHg 87%
    22:00 +14°C° 0 mm 1 m/s 750 mmHg 90%
    23:00 +14°C° 0.1 mm 1 m/s 750 mmHg 91%

    Mâine, 28 Mai, Marţi

    Timp Temperatura Precipitaţii Vânt Presiune Umiditate
    00:00 +15°C° 0.1 mm 1 m/s 750 mmHg 91%
    01:00 +15°C° 0.1 mm 1 m/s 749 mmHg 91%
    02:00 +14°C° 0 mm 1 m/s 749 mmHg 92%
    03:00 +14°C° 0 mm 1 m/s 749 mmHg 93%
    04:00 +14°C° 0 mm 1 m/s 749 mmHg 93%
    05:00 +14°C° 0 mm 2 m/s 749 mmHg 92%
    06:00 +13°C° 0 mm 4 m/s 748 mmHg 90%
    07:00 +13°C° 0 mm 5 m/s 748 mmHg 89%
    08:00 +13°C° 0.1 mm 5 m/s 749 mmHg 86%
    09:00 +13°C° 0.1 mm 5 m/s 749 mmHg 83%
    10:00 +13°C° 0.1 mm 5 m/s 749 mmHg 80%
    11:00 +14°C° 0 mm 5 m/s 750 mmHg 76%
    12:00 +14°C° 0 mm 5 m/s 750 mmHg 72%
    13:00 +15°C° 0 mm 5 m/s 750 mmHg 69%
    14:00 +14°C° 0 mm 5 m/s 750 mmHg 68%
    15:00 +14°C° 0 mm 5 m/s 751 mmHg 68%
    16:00 +13°C° 0 mm 5 m/s 751 mmHg 68%
    17:00 +12°C° 0 mm 4 m/s 752 mmHg 70%
    18:00 +11°C° 0 mm 4 m/s 752 mmHg 71%
    19:00 +11°C° 0 mm 3 m/s 752 mmHg 73%
    20:00 +10°C° 0 mm 3 m/s 753 mmHg 77%
    21:00 +8°C° 0 mm 3 m/s 753 mmHg 80%
    22:00 +7°C° 0 mm 2 m/s 754 mmHg 83%
    23:00 +7°C° 0 mm 2 m/s 754 mmHg 84%

    Poimâine, 29 Mai, Miercuri

    Timp Temperatura Precipitaţii Vânt Presiune Umiditate
    00:00 +7°C° 0 mm 3 m/s 755 mmHg 85%
    01:00 +5°C° 0 mm 3 m/s 755 mmHg 86%
    02:00 +5°C° 0 mm 3 m/s 755 mmHg 88%
    03:00 +5°C° 0 mm 3 m/s 756 mmHg 90%
    04:00 +4°C° 0 mm 3 m/s 756 mmHg 93%
    05:00 +7°C° 0 mm 3 m/s 757 mmHg 85%
    06:00 +8°C° 0 mm 3 m/s 757 mmHg 78%
    07:00 +10°C° 0 mm 4 m/s 758 mmHg 70%
    08:00 +11°C° 0 mm 4 m/s 758 mmHg 65%
    09:00 +12°C° 0 mm 4 m/s 759 mmHg 61%
    10:00 +13°C° 0 mm 3 m/s 759 mmHg 56%
    11:00 +13°C° 0 mm 3 m/s 759 mmHg 54%
    12:00 +14°C° 0 mm 3 m/s 759 mmHg 51%
    13:00 +16°C° 0 mm 3 m/s 759 mmHg 49%
    14:00 +16°C° 0 mm 3 m/s 759 mmHg 50%
    15:00 +16°C° 0 mm 3 m/s 759 mmHg 50%
    16:00 +16°C° 0 mm 3 m/s 759 mmHg 51%
    17:00 +14°C° 0 mm 3 m/s 760 mmHg 57%
    18:00 +13°C° 0 mm 3 m/s 760 mmHg 63%
    19:00 +12°C° 0 mm 2 m/s 760 mmHg 69%
    20:00 +10°C° 0 mm 2 m/s 760 mmHg 72%
    21:00 +8°C° 0 mm 2 m/s 760 mmHg 75%
    22:00 +7°C° 0 mm 2 m/s 761 mmHg 78%
    23:00 +6°C° 0 mm 2 m/s 761 mmHg 77%

    30 Mai, Joi

    Timp Temperatura Precipitaţii Vânt Presiune Umiditate
    00:00 +6°C° 0 mm 2 m/s 761 mmHg 77%
    01:00 +6°C° 0 mm 2 m/s 760 mmHg 77%
    02:00 +5°C° 0 mm 3 m/s 760 mmHg 77%
    03:00 +4°C° 0 mm 3 m/s 760 mmHg 78%
    04:00 +4°C° 0 mm 3 m/s 760 mmHg 79%
    05:00 +7°C° 0 mm 3 m/s 760 mmHg 76%
    06:00 +8°C° 0 mm 4 m/s 760 mmHg 74%
    07:00 +10°C° 0 mm 5 m/s 759 mmHg 71%
    08:00 +14°C° 0 mm 5 m/s 759 mmHg 65%
    09:00 +16°C° 0 mm 5 m/s 759 mmHg 59%
    10:00 +19°C° 0 mm 6 m/s 759 mmHg 53%
    11:00 +20°C° 0 mm 6 m/s 758 mmHg 52%
    12:00 +21°C° 0 mm 6 m/s 758 mmHg 50%
    13:00 +22°C° 0 mm 5 m/s 758 mmHg 49%
    14:00 +22°C° 0 mm 5 m/s 758 mmHg 53%
    15:00 +21°C° 0 mm 5 m/s 758 mmHg 57%
    16:00 +21°C° 0 mm 5 m/s 758 mmHg 61%
    17:00 +20°C° 0.2 mm 4 m/s 758 mmHg 67%
    18:00 +19°C° 0.2 mm 3 m/s 758 mmHg 74%
    19:00 +18°C° 0.2 mm 2 m/s 758 mmHg 80%
    20:00 +17°C° 0 mm 2 m/s 758 mmHg 84%
    21:00 +16°C° 0 mm 2 m/s 758 mmHg 88%
    22:00 +14°C° 0 mm 2 m/s 758 mmHg 93%
    23:00 +14°C° 0 mm 2 m/s 758 mmHg 94%

    31 Mai, Vineri

    Timp Temperatura Precipitaţii Vânt Presiune Umiditate
    00:00 +13°C° 0 mm 2 m/s 758 mmHg 95%
    01:00 +12°C° 0 mm 3 m/s 758 mmHg 96%
    02:00 +12°C° 0 mm 3 m/s 757 mmHg 96%
    03:00 +11°C° 0 mm 3 m/s 757 mmHg 96%
    04:00 +11°C° 0 mm 3 m/s 757 mmHg 96%
    05:00 +12°C° 0 mm 3 m/s 756 mmHg 94%
    06:00 +14°C° 0 mm 4 m/s 756 mmHg 91%
    07:00 +15°C° 0 mm 4 m/s 756 mmHg 89%
    08:00 +15°C° 0.7 mm 4 m/s 756 mmHg 91%
    09:00 +15°C° 0.7 mm 4 m/s 756 mmHg 92%
    10:00 +15°C° 0.7 mm 4 m/s 756 mmHg 94%
    11:00 +17°C° 0.9 mm 4 m/s 756 mmHg 91%
    12:00 +17°C° 0.9 mm 4 m/s 756 mmHg 89%
    13:00 +17°C° 0.9 mm 5 m/s 757 mmHg 87%
    14:00 +17°C° 0.2 mm 5 m/s 757 mmHg 84%
    15:00 +16°C° 0.2 mm 6 m/s 758 mmHg 82%
    16:00 +16°C° 0.2 mm 6 m/s 758 mmHg 79%
    17:00 +14°C° 0 mm 6 m/s 759 mmHg 81%
    18:00 +13°C° 0 mm 6 m/s 759 mmHg 83%
    19:00 +10°C° 0 mm 6 m/s 760 mmHg 84%
    20:00 +9°C° 0 mm 6 m/s 760 mmHg 85%
    21:00 +9°C° 0 mm 5 m/s 761 mmHg 87%
    22:00 +8°C° 0 mm 5 m/s 761 mmHg 88%
    23:00 +7°C° 0 mm 4 m/s 762 mmHg 86%

    1 Iunie, Sâmbătă

    Timp Temperatura Precipitaţii Vânt Presiune Umiditate
    00:00 +7°C° 0 mm 4 m/s 762 mmHg 84%
    01:00 +7°C° 0 mm 4 m/s 763 mmHg 82%
    02:00 +6°C° 0 mm 4 m/s 763 mmHg 81%
    03:00 +6°C° 0 mm 4 m/s 763 mmHg 80%
    04:00 +6°C° 0 mm 4 m/s 764 mmHg 79%
    05:00 +8°C° 0 mm 5 m/s 764 mmHg 76%
    06:00 +9°C° 0 mm 5 m/s 764 mmHg 74%
    07:00 +12°C° 0 mm 5 m/s 765 mmHg 72%
    08:00 +13°C° 0 mm 5 m/s 765 mmHg 68%
    09:00 +14°C° 0 mm 5 m/s 765 mmHg 65%
    10:00 +15°C° 0 mm 5 m/s 765 mmHg 61%
    11:00 +15°C° 0 mm 5 m/s 765 mmHg 59%
    12:00 +16°C° 0 mm 5 m/s 766 mmHg 56%
    13:00 +17°C° 0 mm 5 m/s 766 mmHg 53%
    14:00 +16°C° 0 mm 5 m/s 766 mmHg 53%
    15:00 +16°C° 0 mm 5 m/s 765 mmHg 53%
    16:00 +16°C° 0 mm 5 m/s 765 mmHg 53%
    17:00 +15°C° 0 mm 4 m/s 766 mmHg 59%
    18:00 +13°C° 0 mm 3 m/s 766 mmHg 64%
    19:00 +12°C° 0 mm 3 m/s 766 mmHg 70%
    20:00 +10°C° 0 mm 2 m/s 766 mmHg 76%
    21:00 +8°C° 0 mm 2 m/s 766 mmHg 82%
    22:00 +7°C° 0 mm 2 m/s 767 mmHg 87%
    23:00 +7°C° 0 mm 1 m/s 767 mmHg 87%
    Arată mai mult